Home > Time Zones > World Clock > Weather > Italy > Turin > Past weeks

Flag for Italy Weather past 2 weeks in Turin, Italy

Now
59 °F

Clear.


Feels Like: 58 °F
Forecast: 52 / 76 °F
Wind: 6 mph from Northeast

Location: Torino / Bric Della Croce

Current Time: May 28, 2015 at 4:15:45 AM

Latest Report: May 28, 2015 at 2:55 AM


Visibility: 10 mi

Pressure: 30.04 "Hg

Humidity: 51%

Dew point: 41 °F

Location of TurinLocation

Historic Weather in Turin — Graph

°F

Turin temperature yesterday

Maximum temperature yesterday: 68 °F (at 4:55 PM)
Minimum temperature yesterday: 52 °F (at 3:55 AM)
Average temperature yesterday: 60 °F

Past Weeks' High & Low Weather Summary

 TemperatureHumidityPressure
High73 °F (May 13, 4:55 PM)100% (May 14, 11:55 PM)30.21 "Hg (May 14, 11:55 PM)
Low41 °F (May 21, 7:55 AM)30% (May 27, 4:55 PM)29.47 "Hg (May 15, 11:55 AM)
Average58 °F75%29.92 "Hg
* Reported May 13 2:55 AM — May 28 2:55 AM, Turin, Weather by CustomWeather, © 2015

Note: Actual official high and low records may vary slightly from our data, if they occured in-between our weather recording intervals... More about our weather records

Advertising

Turin weather history for previous 24 hours

 ConditionsComfort  
Time TempWeatherWind HumidityBarometerVisibility
2:55 AM
Thu, May 28
59 °FClear.6 mph51%30.04 "Hg10 mi
1:55 AM61 °FClear.No wind36%30.04 "Hg10 mi
11:55 PM
Wed, May 27
61 °FClear.7 mph36%30.01 "Hg10 mi
10:55 PM61 °FClear.8 mph39%30.01 "Hg10 mi
9:55 PM61 °FSunny.8 mph39%30.01 "Hg10 mi
8:55 PM64 °FSunny.7 mph34%29.98 "Hg10 mi
7:55 PM68 °FSunny.6 mph35%29.98 "Hg10 mi
6:55 PM68 °FSunny.2 mph33%29.98 "Hg10 mi
5:55 PM68 °FSunny.2 mph30%29.98 "Hg10 mi
4:55 PM68 °FSunny.2 mph30%30.01 "Hg10 mi
3:55 PM66 °FSunny.8 mph32%30.01 "Hg10 mi
2:55 PM66 °FPassing clouds.6 mph35%30.01 "HgN/A
1:55 PM64 °FPassing clouds.6 mph40%30.01 "HgN/A
12:55 PM63 °FPassing clouds.5 mph45%30.01 "HgN/A
11:55 AM61 °FPassing clouds.3 mph52%29.98 "HgN/A
10:55 AM59 °FPassing clouds.2 mph63%29.98 "HgN/A
9:55 AM57 °FPassing clouds.No wind63%30.01 "HgN/A
8:55 AM55 °FSunny.No wind63%29.98 "Hg10 mi
7:55 AM54 °FSunny.No wind72%29.98 "Hg10 mi
6:55 AM54 °FSunny.No wind82%29.95 "Hg10 mi
5:55 AM52 °FClear.3 mph94%29.95 "Hg10 mi
4:55 AM52 °FClear.No wind100%29.95 "Hg10 mi
Weather by CustomWeather, © 2015

See weather overviewHow to use our weather pages